Location: Campillo
(40.8621°N, 4.2488°W)
Time: 14:13:45
(UTC+00:00)

Centaur D AC-29 - Pass Details

Date: 30 September 2021
Orbit: 571 x 36266 km, 26.8° (Epoch: 20 October)

Event Time Altitude Azimuth Distance (km) Brightness Sun altitude
Rises 04:45:35 0° 206° (SSW) 12,993 7.4 -17.2°
Reaches altitude 10° 04:56:10 10° 200° (SSW) 14,641 7.7 -15.2°
Maximum altitude 08:39:09 49° 215° (SW) 36,826 10.2 25.6°
Drops below altitude 10° 14:41:10 10° 139° (SE) 4,973 5.8 33.8°
Sets 14:43:21 0° 134° (SE) 5,301 5.8 33.4°
